Сетл

Великобритания     54°04′02″N   2°16′18″W
В апреле 2022 года жителям России запретили посещать сайт meteo.paraplan.net по решению Генеральной прокуратуры. Аудитория сайта уменьшилась в 10 раз. Владельцы сайта не видят смысла в поддержке погодного сервера в таких условиях. Сайт будет закрыт в октябре.
темп.,
°C
ветер,
м/с
пор.,
м/с
влажн.,
%
обл.,
%
осадки,
мм/ч
давл.,
гПа
погр.,
м
3 октября, пн
пн301:00+7зюз2293100 0.0 102613
04:00+8ююз2295100 0.0 102612
07:00+7ю1196100 0.0 102513
10:00+10ююв1289100 0.0 1025157
13:00+13ююз4772100 0.0 1023624
16:00+13ююз3775100 0.0 1021704
19:00+10ю2287100 0.0 101917
22:00+9ю2593100 0.0 101883
4 октября, вт
вт401:00+10ю379567 0.0 1015162
04:00+9ююз3498100 0.0 101396
07:00+10ю3899100 0.0 1011269
10:00+13ююз61491100 0.1 1010803
13:00+13ююз41397100 4.2 1010866
16:00+14юз41098100 3.9 1009739
19:00+14юз2799100 5.6 1008475
22:00+14ююз31098100 4.0 1008601
5 октября, ср
ср501:00+13ююз41197100 4.4 1006625
04:00+14ю51498100 0.1 1001886
07:00+15ююз112397100 0.8 9961401
10:00+14ююз122692100 0.6 9931861
13:00+10з121891100 2.2 10011346
16:00+10зюз11168692 1.3 10061434
19:00+8з10168554 2.5 10121044
22:00+8з11188596 0.3 10161192
6 октября, чт
чт601:00+9з9158447 0.4 10191031
04:00+9зюз10168749 0.1 1020979
07:00+10зюз101788100 0.1 10211090
10:00+11зюз111789100 0.1 10221129
13:00+13зюз10158538 0.5 10231215
16:00+13зюз9148627 0.6 10221096
19:00+12юз7149368 0.9 1022813
22:00+12юз71492100 0.3 1021911
7 октября, пт
пт701:00+12юз9169297 0.9 10191050
04:00+11зюз91790100 0.4 1017916
07:00+11зюз101787100 0.4 1015904
10:00+12зюз101687100 0.2 10151063
13:00+13зюз11168962 1.2 10141196
16:00+12зюз1117899 1.6 10131352
19:00+10з815894 2.0 1015738
22:00+10з7139131 0.0 1015679